Location: Brahman Valley
(40.6513°N, 111.8855°W)
Time: 08:44:06
(UTC+00:00)

Tiros 1 despin weight - Pass Details

Date: 19 May 2021
Orbit: 594 x 641 km, 48.2° (Epoch: 22 June)

Event Time Altitude Azimuth Distance (km) Brightness Sun altitude
Rises 07:52:26 0° 295° (WNW) 2,943 ? -29.1°
Enters shadow 07:54:25 - 289° (WNW) 2,204 ? -29.1°
Reaches altitude 10° 07:54:54 10° 286° (WNW) 2,031 - -29.1°
Maximum altitude 07:59:10 36° 221° (SW) 1,015 - -29.0°
Drops below altitude 10° 08:03:25 10° 155° (SSE) 2,012 - -28.8°
Sets 08:05:51 0° 146° (SSE) 2,911 - -28.7°
